Weather History for KHKA - October, 2013

Change the Weather History Date:

Monday, October 14, 2013

  Actual Average Record
Temperature  
Mean Temperature 64 °F -  
Max Temperature 78 °F 74 °F 90 °F (1947)
Min Temperature 50 °F 52 °F 35 °F (1937)
Degree Days  
Heating Degree Days 1    
Growing Degree Days 14 (Base 50)    
Moisture  
Dew Point 56 °F    
Average Humidity 74    
Maximum Humidity 93    
Minimum Humidity 52    
Precipitation  
Precipitation 0.00 in - - ()
Sea Level Pressure  
Sea Level Pressure 30.17 in    
Wind  
Wind Speed 5 mph (ENE)    
Max Wind Speed 9 mph    
Max Gust Speed -    
Visibility 10 miles    
Events Rain    
Averages and records for this station are not official NWS values.
T = Trace of Precipitation, MM = Missing Value Source: NWS Daily Summary

Daily Weather History Graph

Daily Weather History Graph

Search for Another Location

Airport or City:

Trip Planner

Search our weather history database for the weather conditions in past years. The results will help you decide how hot, cold, wet, or windy it might be!

Date:

Astronomy

Oct. 14, 2013 Rise Set
Actual Time 7:05 AM CDT 6:24 PM CDT
Civil Twilight 6:39 AM CDT 6:50 PM CDT
Nautical Twilight 6:09 AM CDT 7:19 PM CDT
Astronomical Twilight 5:40 AM CDT 7:49 PM CDT
Moon 3:47 PM CDT (10/14) 2:30 AM CDT (10/14)
Length of Visible Light 12h 10m
Length of Day
11h 19m
Waxing Gibbous, 79% of the Moon is Illuminated
Oct 14
Waxing Gibbous
Oct 18
Full
Oct 26
Last Quarter
Nov 3
New
Nov 9
First Quarter

Hourly Weather History & Observations

Time (CDT) Temp. Dew Point Humidity Pressure Visibility Wind Dir Wind Speed Gust Speed Precip Events Conditions
12:53 AM 52.0 °F 48.9 °F 89% 30.26 in 10.0 mi North 3.5 mph - N/A   Clear
1:53 AM 51.1 °F 48.0 °F 89% 30.26 in 10.0 mi North 5.8 mph - N/A   Clear
2:53 AM 51.1 °F 48.0 °F 89% 30.25 in 10.0 mi North 4.6 mph - N/A   Clear
3:53 AM 50.0 °F 48.0 °F 93% 30.24 in 10.0 mi North 4.6 mph - N/A   Clear
4:53 AM 51.1 °F 48.0 °F 89% 30.24 in 10.0 mi NNE 3.5 mph - N/A   Clear
5:53 AM 50.0 °F 48.0 °F 93% 30.25 in 10.0 mi North 3.5 mph - N/A   Clear
6:53 AM 50.0 °F 48.0 °F 93% 30.25 in 10.0 mi NNE 3.5 mph - N/A   Clear
7:53 AM 53.1 °F 50.0 °F 89% 30.25 in 10.0 mi Calm Calm - N/A   Clear
8:53 AM 61.0 °F 50.0 °F 67% 30.25 in 10.0 mi ENE 6.9 mph - N/A   Clear
9:53 AM 66.0 °F 52.0 °F 60% 30.24 in 10.0 mi East 9.2 mph - N/A   Clear
10:53 AM 71.1 °F 57.0 °F 61% 30.22 in 10.0 mi ESE 6.9 mph - N/A   Clear
11:53 AM 75.9 °F 60.1 °F 58% 30.20 in 10.0 mi ESE 5.8 mph - N/A   Clear
12:53 PM 78.1 °F 59.0 °F 52% 30.16 in 10.0 mi ESE 9.2 mph - N/A   Clear
1:53 PM 77.0 °F 59.0 °F 54% 30.13 in 10.0 mi ESE 8.1 mph - N/A   Clear
2:53 PM 77.0 °F 59.0 °F 54% 30.12 in 10.0 mi SE 5.8 mph - N/A   Clear
3:53 PM 77.0 °F 59.0 °F 54% 30.09 in 10.0 mi ESE 4.6 mph - N/A   Clear
4:53 PM 75.9 °F 61.0 °F 60% 30.08 in 10.0 mi Calm Calm - N/A   Clear
5:53 PM 73.0 °F 62.1 °F 68% 30.08 in 10.0 mi Calm Calm - N/A   Clear
6:53 PM 71.1 °F 62.1 °F 73% 30.09 in 10.0 mi Calm Calm - N/A   Clear
7:53 PM 69.1 °F 62.1 °F 78% 30.08 in 10.0 mi East 4.6 mph - N/A   Clear
8:53 PM 68.0 °F 62.1 °F 81% 30.09 in 10.0 mi East 4.6 mph - N/A   Clear
9:53 PM 68.0 °F 61.0 °F 78% 30.09 in 10.0 mi ESE 4.6 mph - N/A   Clear
10:53 PM 66.9 °F 61.0 °F 81% 30.08 in 10.0 mi ESE 4.6 mph - 0.00 in Rain Light Rain
11:53 PM 68.0 °F 61.0 °F 78% 30.07 in 10.0 mi ESE 6.9 mph - 0.00 in   Clear